Tracking 19709 objects as of 20-Jun-2019
HD Live streaming from Space Station
objects crossing your sky now

COSMOS 2333

Track COSMOS 2333 now!
10-day predictions
COSMOS 2333 is classified as:


NORAD ID: 24297
Int'l Code: 1996-051A
Perigee: 837.3 km
Apogee: 873.1 km
Inclination: 70.9 °
Period: 101.9 minutes
Semi major axis: 7226 km
RCS: 6.069 m2 (large)
Launch date: September 4, 1996
Source: Commonwealth of Independent States (former USSR) (CIS)
Launch site: TYURATAM MISSILE AND SPACE COMPLEX (TTMTR)
aabbcc
Your satellite tracking list
Your tracking list is empty




NASA's NSSDC Master Catalog

Two Line Element Set (TLE):
1 24297U 96051A   19171.36896785 -.00000050  00000-0 -67335-6 0  9993
2 24297  70.9029 310.5806 0024735 188.2245 171.8474 14.13315966175731
Source of the keplerian elements: AFSPC